Weather History for KAMA - February, 2014

Change the Weather History Date:

Saturday, February 1, 2014

  Actual Average Record
Temperature  
Mean Temperature 30 °F 38 °F  
Max Temperature 39 °F 52 °F 88 °F (1963)
Min Temperature 20 °F 24 °F -14 °F (1951)
Degree Days  
Heating Degree Days 35 27  
Month to date heating degree days 35 27  
Since 1 July heating degree days 2633 2612  
Cooling Degree Days 0 0  
Month to date cooling degree days 0 0  
Year to date cooling degree days 0 0  
Moisture  
Dew Point 20 °F    
Average Humidity 66    
Maximum Humidity 84    
Minimum Humidity 48    
Precipitation  
Precipitation 0.00 in 0.02 in 0.33 in (1983)
Month to date precipitation 0.00 0.02  
Year to date precipitation 0.03 0.74  
Snow  
Snow 0.00 in 0.20 in 3.80 in (1983)
Month to date snowfall 0.0 0.2  
Since 1 July snowfall 7.4 11.3  
Snow Depth 0.00 in    
Sea Level Pressure  
Sea Level Pressure 29.97 in    
Wind  
Wind Speed 11 mph (NNE)    
Max Wind Speed 21 mph    
Max Gust Speed 24 mph    
Visibility 10 miles    
Events      
T = Trace of Precipitation, MM = Missing Value Source: NWS Daily Summary

Daily Weather History Graph

Daily Weather History Graph

Search for Another Location

Airport or City:

Trip Planner

Search our weather history database for the weather conditions in past years. The results will help you decide how hot, cold, wet, or windy it might be!

Date:

Astronomy

Feb. 01, 2014 Rise Set
Actual Time 7:46 AM CST 6:15 PM CST
Civil Twilight 7:19 AM CST 6:42 PM CST
Nautical Twilight 6:49 AM CST 7:12 PM CST
Astronomical Twilight 6:19 AM CST 7:42 PM CST
Moon 8:43 AM CST (2/1) 8:45 PM CST (2/1)
Length of Visible Light 11h 22m
Length of Day
10h 29m
Waxing Crescent, 5% of the Moon is Illuminated
Feb 1
Waxing Crescent
Feb 6
First Quarter
Feb 14
Full
Feb 22
Last Quarter
Mar 1
New

Hourly Weather History & Observations

Time (CST) Temp. Windchill Dew Point Humidity Pressure Visibility Wind Dir Wind Speed Gust Speed Precip Events Conditions
12:53 AM 26.1 °F 17.6 °F 19.0 °F 75% 29.81 in 10.0 mi NE 8.1 mph - N/A   Overcast
1:53 AM 21.9 °F 12.5 °F 17.1 °F 82% 29.82 in 9.0 mi North 8.1 mph - N/A   Clear
2:53 AM 21.9 °F 12.5 °F 17.1 °F 82% 29.83 in 9.0 mi NNW 8.1 mph - N/A   Scattered Clouds
3:53 AM 21.0 °F 13.4 °F 17.1 °F 85% 29.83 in 9.0 mi North 5.8 mph - N/A   Partly Cloudy
4:53 AM 23.0 °F 12.4 °F 18.0 °F 81% 29.83 in 10.0 mi North 10.4 mph - N/A   Clear
5:53 AM 23.0 °F 10.1 °F 18.0 °F 81% 29.85 in 10.0 mi North 15.0 mph - N/A   Partly Cloudy
6:53 AM 23.0 °F 11.1 °F 18.0 °F 81% 29.88 in 10.0 mi North 12.7 mph - N/A   Scattered Clouds
7:53 AM 24.1 °F 14.4 °F 19.0 °F 81% 29.91 in 10.0 mi NNW 9.2 mph - N/A   Mostly Cloudy
8:53 AM 25.0 °F 18.1 °F 19.0 °F 78% 29.94 in 10.0 mi NNW 5.8 mph - N/A   Scattered Clouds
9:53 AM 26.1 °F 19.4 °F 19.0 °F 75% 29.96 in 10.0 mi NNE 5.8 mph - N/A   Scattered Clouds
10:53 AM 27.0 °F 20.5 °F 19.0 °F 72% 29.96 in 10.0 mi NNE 5.8 mph - N/A   Clear
11:53 AM 30.9 °F 23.5 °F 19.9 °F 64% 29.97 in 10.0 mi North 8.1 mph - N/A   Clear
12:53 PM 34.0 °F 28.0 °F 19.9 °F 56% 29.95 in 10.0 mi NNE 6.9 mph - N/A   Partly Cloudy
1:53 PM 37.0 °F 29.8 °F 19.9 °F 50% 29.93 in 10.0 mi NE 10.4 mph - N/A   Clear
2:53 PM 37.0 °F 29.8 °F 19.9 °F 50% 29.93 in 10.0 mi NNE 10.4 mph - N/A   Mostly Cloudy
3:53 PM 37.9 °F 31.5 °F 19.9 °F 48% 29.93 in 10.0 mi NNE 9.2 mph - N/A   Clear
4:53 PM 36.0 °F 27.5 °F 19.9 °F 52% 29.95 in 10.0 mi NNE 12.7 mph - N/A   Clear
5:53 PM 33.1 °F 23.4 °F 21.0 °F 61% 29.99 in 10.0 mi NNE 13.8 mph - N/A   Scattered Clouds
6:53 PM 30.9 °F 19.8 °F 21.0 °F 67% 30.04 in 10.0 mi NE 16.1 mph - N/A   Mostly Cloudy
7:07 PM 30.0 °F 18.7 °F 21.9 °F 72% 29.99 in 10.0 mi NE 16.1 mph - N/A   Overcast
7:53 PM 28.9 °F 18.2 °F 21.9 °F 75% 30.09 in 10.0 mi NE 13.8 mph - N/A   Overcast
8:40 PM 28.0 °F 17.0 °F 21.9 °F 78% 30.05 in 10.0 mi NE 13.8 mph - N/A   Overcast
8:53 PM 28.0 °F 16.1 °F 21.9 °F 78% 30.12 in 10.0 mi NNE 16.1 mph - N/A   Overcast
9:53 PM 27.0 °F 14.7 °F 21.0 °F 78% 30.16 in 9.0 mi NNE 16.1 mph - N/A   Overcast
10:53 PM 26.1 °F 12.7 °F 21.0 °F 81% 30.15 in 10.0 mi NNE 18.4 mph - N/A   Overcast
11:05 PM 26.1 °F 13.1 °F 21.0 °F 81% 30.09 in 10.0 mi NNE 17.3 mph - N/A   Overcast
11:38 PM 25.0 °F 13.1 °F 19.9 °F 81% 30.13 in 10.0 mi NE 13.8 mph - N/A   Overcast
11:53 PM 25.0 °F 13.6 °F 19.9 °F 81% 30.19 in 10.0 mi NE 12.7 mph - N/A   Overcast